Wetbulb
55.29 55.35 55.16 53.85 52.62 51.31 50.47 51.84 49.60 58.68 58.03 48.53 48.88 45.38 48.27 49.18 49.98 51.94 50.96 52.02 50.62 48.87 49.39 48.40 48.50 47.34 48.77 52.26 52.20 49.06 52.37 47.52 45.71 53.28 58.25 60.58 57.85 55.28 54.48 49.30 48.61 50.26 50.93 50.53
55.13 55.15 54.69 53.54 52.48 52.05 47.84 47.23 51.67 57.08 55.86 43.89 46.04 49.81 50.15 51.13 51.37 49.59 49.43 49.51 51.11 51.34 48.92 45.68 49.94 51.05 54.80 53.38 50.55 49.88 49.96 48.53 44.66 47.64 53.16 54.93 53.85 55.45 56.43 54.27 53.35 50.06 48.46 50.41
54.92 54.93 54.38 53.28 52.66 52.33 49.45 48.90 48.24 52.96 54.23 52.96 48.83 47.62 49.22 49.06 53.51 51.24 51.40 49.39 49.42 48.43 48.20 49.61 48.19 50.13 53.65 54.79 51.26 62.14 55.87 46.59 46.02 46.99 49.82 54.48 53.11 55.53 57.02 54.58 50.38 51.59 51.70 53.07
54.84 54.80 54.39 53.66 52.88 52.10 49.94 51.74 49.05 49.39 45.87 47.42 46.76 46.36 46.84 46.80 47.78 52.36 52.11 50.84 50.08 47.26 44.90 46.91 47.65 50.77 51.39 53.92 59.39 52.28 48.44 42.90 44.93 48.48 55.06 56.38 55.60 56.38 57.59 53.11 54.23 51.02 53.77 52.87
54.71 54.77 54.74 54.10 53.27 51.84 51.81 48.18 46.47 48.28 46.12 47.25 45.69 44.79 44.73 45.30 46.38 47.39 46.91 47.16 50.19 50.49 45.69 48.94 47.91 50.16 49.47 49.72 52.70 50.21 48.60 44.44 49.01 46.11 51.62 55.85 54.02 55.09 56.86 56.95 56.13 55.59 55.75 54.84
54.45 54.71 54.91 54.49 53.58 51.55 49.76 51.69 51.29 47.97 44.85 44.77 43.55 43.71 45.01 45.30 46.72 48.28 49.17 47.88 47.39 47.67 50.65 52.97 53.33 54.18 54.16 51.23 48.73 48.77 47.78 45.14 43.93 41.82 51.57 52.77 49.81 53.25 54.10 56.95 58.00 57.44 53.37 56.32
53.58 54.35 54.96 54.93 54.40 52.98 49.41 50.07 49.39 45.16 41.28 43.69 43.58 44.91 45.47 44.44 45.21 44.10 46.63 47.90 46.14 49.79 52.06 53.48 54.57 54.69 53.97 51.73 50.43 50.89 47.87 45.99 45.87 43.24 46.75 43.36 52.63 57.83 57.57 58.52 59.27 59.64 58.72 59.56
53.54 53.74 54.47 54.95 54.57 53.93 50.20 50.16 48.93 45.50 39.90 43.38 43.86 44.77 44.42 45.46 45.56 44.59 45.68 47.48 49.17 50.79 49.73 46.42 46.46 47.78 49.36 49.75 51.05 50.23 50.49 46.98 43.39 42.56 44.04 47.48 54.33 55.71 55.92 55.08 56.78 60.55 58.62 60.41
53.35 53.57 54.13 54.43 54.53 53.81 51.05 50.53 52.21 48.04 41.71 40.99 44.84 42.95 44.43 41.63 41.76 42.97 45.59 49.22 50.89 50.19 46.79 44.37 41.40 42.57 47.15 45.81 47.01 49.86 49.91 49.41 47.32 43.84 41.48 41.48 48.99 57.98 59.82 58.93 52.48 61.19 61.55 60.84
53.27 53.51 53.62 53.60 53.86 53.96 51.51 49.47 51.99 48.56 43.27 45.59 45.71 42.52 42.08 45.55 43.56 41.11 43.55 45.13 45.85 48.68 43.72 41.70 41.15 42.08 50.15 45.89 44.14 43.84 45.75 46.75 45.08 46.42 43.68 46.58 53.38 58.79 61.20 50.64 52.19 61.13 61.86 61.54
53.04 52.94 53.09 53.18 53.20 53.74 51.94 48.84 51.08 47.93 43.29 44.69 46.81 47.37 44.35 44.90 44.19 39.83 43.10 41.77 44.82 44.70 41.19 43.40 44.40 44.80 48.31 48.31 49.48 47.15 46.03 44.80 44.85 46.52 44.45 43.77 56.28 58.30 54.65 56.75 60.53 61.46 62.02 61.66
53.12 52.98 52.81 52.74 52.94 53.50 53.08 46.58 50.86 51.97 48.92 45.62 49.66 49.71 50.55 49.39 48.78 45.06 44.42 42.07 42.37 45.19 42.82 43.52 42.58 46.65 49.35 48.02 44.79 51.27 46.99 50.46 47.34 49.03 48.94 56.61 57.53 58.41 60.79 61.19 60.18 62.13 63.00 63.19
53.20 53.20 53.02 53.03 52.88 53.15 52.61 49.48 49.85 48.58 44.83 44.95 45.32 44.59 50.10 51.79 51.23 51.59 42.28 44.03 45.97 46.25 47.83 43.30 42.48 42.96 49.98 46.91 48.53 49.88 52.40 54.01 51.34 49.66 52.75 54.32 56.96 57.54 60.36 62.06 62.80 63.94 64.44 63.50
53.05 53.26 53.16 53.17 53.49 53.47 52.73 48.92 50.48 49.39 46.71 39.45 40.99 50.08 47.59 51.52 51.06 50.86 50.46 48.01 47.89 49.06 48.39 43.71 40.81 38.71 46.40 44.76 48.31 51.46 53.33 53.41 52.15 50.12 53.17 55.36 56.87 58.58 59.19 61.83 62.73 63.88 65.06 64.82
52.98 53.09 53.21 53.38 53.50 53.54 52.66 51.05 50.67 50.84 44.91 39.69 41.07 46.38 47.98 49.53 49.23 48.59 49.57 47.84 46.64 47.24 42.84 40.82 39.48 42.61 45.70 48.67 51.19 51.75 55.83 52.77 51.44 50.77 54.23 53.99 55.58 59.90 62.01 60.93 60.83 64.65 65.04 66.02
53.17 53.29 53.21 53.64 53.85 53.48 50.37 45.03 51.66 52.55 49.76 42.98 36.50 45.43 45.55 47.60 48.30 48.05 48.39 46.69 47.01 47.67 43.75 41.67 43.79 45.82 44.65 40.61 47.62 55.05 57.22 61.57 62.48 58.27 58.17 57.53 59.66 60.06 60.52 60.04 61.36 61.72 63.48 65.01
53.64 53.66 53.54 53.61 53.09 51.41 47.17 44.81 49.20 51.34 49.72 42.33 37.91 38.10 46.24 49.15 49.91 48.56 47.10 48.31 48.43 47.05 44.74 42.58 43.31 43.51 45.14 41.49 39.72 52.15 56.56 59.23 61.22 64.96 64.07 56.61 59.80 57.31 59.19 60.82 62.08 60.99 63.99 64.74
53.48 53.65 53.51 53.25 53.06 51.56 47.78 50.51 51.77 51.84 48.13 44.02 36.73 36.85 41.89 49.58 46.14 44.84 49.20 45.81 47.01 46.62 45.33 46.17 43.28 45.21 44.80 40.16 46.49 54.23 57.01 61.73 63.25 64.01 64.72 64.13 64.82 64.49 65.13 65.93 65.29 60.27 63.00 67.07
53.39 53.18 53.37 51.45 49.57 46.19 48.80 54.93 54.43 51.49 46.91 39.97 38.86 36.18 36.24 47.47 47.00 47.18 47.09 47.64 41.09 46.85 41.48 43.61 45.05 42.73 38.50 44.19 51.35 56.28 57.42 58.86 60.52 63.74 64.50 65.16 64.92 64.46 64.86 64.97 65.39 64.73 65.63 67.01
52.52 51.50 47.79 43.68 49.52 54.37 53.51 49.32 45.55 44.53 44.75 42.77 38.43 43.83 39.07 43.28 46.08 44.03 43.95 45.65 42.67 40.35 43.40 48.45 43.35 42.34 47.31 49.49 52.02 57.36 60.79 60.13 62.53 62.04 61.61 62.39 63.03 64.09 64.68 65.07 64.82 64.52 64.99 66.24
50.57 48.94 47.13 49.73 53.03 50.99 48.77 43.88 41.73 41.54 38.63 40.71 40.99 41.78 40.35 47.78 42.37 43.62 47.99 44.33 45.62 41.36 44.59 43.81 44.61 44.52 47.63 50.32 51.89 57.49 60.86 61.05 61.68 63.40 63.78 64.13 64.40 64.03 64.56 65.06 66.52 67.54 65.58 65.37
47.33 47.11 50.63 50.08 46.44 44.53 41.26 40.58 43.38 41.60 40.41 43.78 43.73 44.17 44.39 46.51 49.75 46.07 47.35 43.64 46.62 41.72 48.26 45.32 43.65 48.90 53.17 54.27 55.59 57.27 59.89 61.36 62.60 65.03 64.55 65.24 66.46 65.61 66.95 66.48 65.71 66.38 68.68 66.73
50.32 45.62 41.81 42.19 41.85 36.85 37.23 36.32 40.55 42.59 47.73 47.30 46.98 44.95 46.92 47.08 47.37 45.77 44.78 43.32 44.11 51.68 46.44 45.32 48.04 54.25 58.57 57.02 57.94 58.35 60.39 64.97 66.50 67.59 69.03 68.68 70.36 70.61 69.69 69.09 68.23 68.11 68.87 67.93
43.94 40.74 34.85 38.47 38.66 40.98 42.24 42.64 44.39 50.39 50.46 49.19 48.49 47.34 45.49 46.99 43.49 44.38 40.04 46.02 48.63 43.78 42.32 45.11 54.26 57.91 61.00 62.17 61.74 59.27 63.97 65.66 66.42 67.32 68.17 70.02 71.21 71.37 72.35 72.38 70.06 70.09 67.66 69.01
41.40 40.21 33.76 38.70 43.22 45.22 47.46 50.52 49.77 50.78 51.57 50.90 48.86 48.61 46.89 44.72 42.91 44.53 43.17 42.27 42.79 45.27 44.11 50.97 56.61 58.75 60.17 61.35 63.18 63.70 64.25 64.84 65.86 67.34 68.18 70.18 70.75 71.20 72.01 72.73 72.85 74.21 73.91 74.68
42.29 40.48 37.58 41.60 42.36 44.22 45.07 47.04 47.18 50.71 49.56 52.29 51.09 47.28 44.47 42.77 43.61 40.95 41.13 42.83 43.31 47.81 51.11 55.09 56.26 57.75 59.40 61.27 63.42 64.47 65.32 65.19 66.73 67.62 68.60 70.21 70.04 70.42 70.49 70.85 72.01 72.80 74.54 74.54
40.10 38.71 42.18 40.97 40.89 41.57 43.17 45.42 45.84 49.53 48.10 46.97 48.05 42.92 43.65 48.25 44.21 43.24 47.05 45.78 49.11 52.17 54.37 55.92 56.16 57.28 58.48 59.78 62.02 64.58 64.16 64.98 65.87 65.52 67.42 68.80 69.55 69.68 69.84 69.30 69.86 70.37 72.10 74.19
MSLP
1019.58 1018.92 1018.14 1017.36 1016.42 1014.75 1012.72 1011.48 1008.42 1005.76 1005.60 1006.32 1006.08 1005.45 1004.14 1002.69 1001.46 1000.48 1000.21 1000.17 1000.30 1000.17 999.95 999.45 998.60 997.17 996.32 995.82 996.04 996.67 996.93 997.78 998.31 998.82 999.33 1001.01 1002.27 1003.52 1004.15 1007.27 1009.77 1010.70 1010.16 1005.28
1019.71 1019.10 1018.41 1017.74 1017.17 1016.79 1016.09 1013.11 1008.91 1005.46 1005.55 1006.20 1005.91 1005.10 1004.16 1003.07 1001.94 1001.21 1000.92 1000.89 1000.83 1000.70 1000.56 1000.17 998.86 997.67 996.21 995.48 995.31 995.85 996.50 997.41 998.30 998.81 999.21 999.20 1000.16 1001.33 1003.60 1005.96 1008.51 1009.48 1008.33 1003.69
1019.91 1019.30 1018.69 1018.00 1017.35 1016.94 1016.50 1013.81 1009.58 1006.75 1006.21 1006.35 1006.63 1006.19 1004.92 1003.90 1002.77 1002.16 1001.81 1001.66 1001.80 1001.71 1001.28 1000.51 999.71 998.41 996.85 995.96 995.09 995.39 995.85 996.79 997.58 998.03 998.91 999.47 999.90 1002.21 1001.96 1004.23 1007.05 1007.70 1006.08 1004.08
1020.06 1019.45 1018.74 1018.11 1017.32 1016.45 1016.34 1013.63 1010.68 1010.50 1008.67 1008.05 1008.33 1007.78 1006.86 1005.73 1004.74 1003.79 1003.55 1003.10 1002.79 1002.70 1002.47 1001.84 1000.93 999.52 997.89 996.62 996.23 995.52 995.90 996.85 997.20 997.41 997.43 998.33 999.76 1001.47 1002.95 1004.15 1003.29 1004.26 1003.81 1003.93
1020.15 1019.68 1019.07 1018.35 1017.40 1015.86 1015.42 1013.90 1013.15 1012.23 1011.29 1009.92 1009.29 1008.38 1007.62 1006.86 1006.07 1005.67 1004.99 1004.80 1004.18 1003.90 1003.63 1003.89 1002.80 1001.42 999.60 998.33 996.79 996.72 996.30 997.22 997.56 997.76 997.74 997.93 999.78 1000.73 1002.18 1003.21 1003.39 1002.13 1001.93 1001.95
1020.36 1019.90 1019.40 1018.89 1018.33 1017.05 1016.10 1015.38 1015.03 1014.09 1012.53 1011.48 1010.71 1009.60 1008.80 1008.16 1007.57 1006.71 1006.51 1006.69 1006.25 1005.47 1005.06 1004.40 1003.23 1001.83 1000.23 999.10 998.43 997.75 997.42 997.53 998.16 998.52 998.37 998.40 998.67 999.04 1000.11 1001.25 1001.15 1000.53 1000.50 1000.24
1020.41 1020.10 1019.72 1019.26 1019.00 1019.06 1018.63 1017.28 1016.40 1015.41 1013.90 1012.80 1011.89 1010.93 1010.21 1009.70 1009.33 1009.07 1008.29 1007.96 1007.69 1006.80 1006.15 1004.68 1002.71 1001.12 1000.00 998.88 998.21 997.89 997.80 997.85 998.32 999.01 998.59 998.36 997.33 996.95 998.53 999.80 1000.35 1000.29 999.86 999.36
1020.44 1020.19 1019.85 1019.61 1019.43 1019.30 1018.85 1017.85 1017.08 1016.29 1015.29 1014.29 1013.31 1012.37 1011.73 1011.22 1010.65 1010.09 1009.54 1008.77 1008.60 1007.90 1007.18 1006.29 1004.65 1002.39 1000.78 999.32 998.47 997.88 997.78 998.06 998.51 998.95 998.27 997.79 997.09 997.07 997.63 998.61 999.49 999.68 1000.44 999.32
1020.40 1020.19 1019.99 1019.70 1019.56 1019.45 1018.96 1017.92 1017.10 1016.86 1016.48 1014.89 1014.95 1014.29 1013.35 1012.53 1011.78 1011.11 1010.55 1010.11 1009.30 1008.97 1008.75 1008.04 1006.72 1004.58 1002.30 1000.30 999.04 998.14 997.97 997.97 998.84 998.45 998.25 996.96 996.13 995.73 995.48 996.16 998.59 999.13 997.47 999.39
1020.40 1020.14 1019.96 1019.69 1019.47 1019.43 1019.48 1018.38 1017.50 1017.16 1016.81 1015.47 1015.23 1014.90 1014.42 1013.70 1013.03 1012.66 1012.26 1011.74 1010.91 1010.13 1009.87 1009.38 1007.92 1005.86 1003.99 1001.60 999.79 999.36 998.85 998.84 998.89 998.42 997.35 996.01 994.89 994.58 994.83 996.16 997.31 996.54 997.20 996.97
1020.32 1020.05 1019.93 1019.77 1019.63 1019.38 1019.37 1018.58 1017.78 1017.51 1016.99 1015.73 1015.32 1015.14 1014.91 1014.31 1013.80 1013.48 1012.99 1013.09 1012.15 1011.60 1011.31 1010.30 1008.82 1006.34 1004.12 1001.79 1000.09 998.93 998.88 999.22 998.57 997.91 996.86 995.47 993.96 994.32 993.81 995.10 995.80 996.36 995.75 995.98
1019.87 1019.79 1019.50 1019.28 1019.29 1019.47 1019.24 1018.77 1017.54 1017.05 1017.03 1015.90 1015.14 1014.93 1014.67 1014.49 1014.09 1014.06 1013.62 1013.65 1013.41 1013.91 1013.88 1013.04 1011.50 1007.87 1004.87 1002.16 1000.25 998.95 998.54 997.85 997.75 997.02 995.84 994.14 992.95 993.14 992.99 992.83 994.57 995.40 995.81 994.62
1019.39 1019.34 1019.27 1019.28 1019.00 1019.01 1019.11 1018.70 1017.99 1017.44 1016.64 1015.52 1014.45 1013.68 1013.24 1013.41 1013.35 1013.41 1013.56 1013.58 1013.61 1013.98 1014.89 1015.12 1013.91 1010.64 1007.17 1004.15 1000.69 999.16 997.82 997.34 997.13 996.93 995.24 994.43 993.21 992.53 992.50 992.30 992.69 994.39 994.16 994.91
1019.02 1018.89 1018.73 1018.79 1018.60 1018.58 1018.61 1018.32 1017.70 1017.44 1017.23 1016.26 1013.91 1013.11 1012.82 1012.41 1012.31 1012.11 1012.29 1012.80 1013.22 1014.63 1015.22 1015.30 1014.78 1013.02 1010.15 1006.84 1004.13 1000.68 997.40 996.77 996.25 995.55 995.08 994.36 993.17 992.81 992.23 992.70 992.82 993.61 994.45 994.03
1018.58 1018.52 1018.27 1018.25 1018.06 1018.08 1017.99 1017.45 1016.84 1016.63 1017.14 1015.81 1014.26 1013.51 1012.42 1011.97 1011.80 1011.68 1011.67 1012.09 1012.60 1013.79 1015.23 1015.31 1014.75 1013.29 1011.73 1008.16 1004.40 1000.25 997.98 996.59 995.92 994.21 993.88 993.75 992.90 992.84 992.43 992.66 992.19 993.41 993.89 995.45
1017.99 1017.88 1017.79 1017.67 1017.56 1017.67 1017.75 1016.24 1015.62 1015.45 1015.69 1016.32 1015.14 1012.94 1011.45 1010.94 1010.52 1010.47 1010.52 1011.42 1012.06 1012.75 1013.83 1014.58 1014.25 1013.22 1013.02 1010.29 1004.17 999.20 998.01 996.33 995.19 994.32 992.92 992.85 992.03 992.33 992.09 992.45 992.47 992.46 993.15 995.11
1017.38 1017.20 1017.17 1016.98 1017.00 1017.33 1017.09 1016.00 1016.29 1015.90 1015.91 1016.45 1015.66 1013.72 1011.11 1010.51 1009.92 1009.79 1009.97 1010.74 1011.42 1012.23 1013.20 1013.75 1013.54 1013.23 1012.83 1010.61 1006.06 1000.97 998.81 997.04 995.53 993.58 992.69 992.59 992.45 992.39 991.99 992.17 992.26 992.33 992.56 993.42
1016.73 1016.53 1016.41 1016.23 1016.28 1016.46 1016.04 1014.82 1014.90 1015.78 1016.21 1016.52 1015.82 1013.81 1011.94 1011.04 1010.09 1010.03 1009.97 1010.68 1011.36 1011.77 1011.92 1012.36 1012.38 1012.33 1011.75 1009.29 1004.41 1001.76 999.19 997.12 995.32 994.18 993.69 993.68 993.08 992.57 992.43 992.55 992.67 992.33 992.94 994.34
1016.03 1015.76 1015.62 1015.75 1015.86 1014.91 1013.51 1013.19 1013.27 1014.68 1015.73 1015.49 1014.75 1013.38 1012.10 1011.06 1010.12 1010.27 1010.46 1010.26 1010.71 1010.83 1010.70 1010.22 1010.85 1010.05 1009.44 1004.39 1003.52 1000.59 998.52 997.50 996.22 995.19 994.71 994.34 993.93 993.65 993.37 993.25 993.46 993.59 994.63 995.60
1015.36 1015.25 1015.21 1014.74 1014.57 1013.71 1013.57 1013.78 1014.34 1014.88 1014.66 1014.53 1013.24 1012.11 1011.51 1011.34 1009.50 1009.67 1009.84 1009.56 1008.87 1008.67 1008.35 1008.21 1007.99 1007.22 1004.74 1003.61 1002.76 1000.26 998.35 997.41 996.44 995.86 995.42 995.02 994.71 994.56 994.39 994.14 993.90 993.97 994.25 995.14
1015.06 1014.93 1014.91 1014.97 1014.53 1014.12 1012.94 1012.70 1013.07 1012.95 1012.96 1012.41 1011.16 1010.66 1010.43 1010.06 1009.36 1008.40 1008.02 1007.55 1006.58 1005.77 1005.33 1005.81 1004.51 1002.48 999.91 999.97 1000.08 998.90 997.92 996.97 996.45 995.80 995.60 995.26 994.87 994.62 994.47 994.20 994.00 993.85 994.02 994.10
1015.85 1015.84 1015.25 1015.00 1014.51 1013.41 1012.21 1010.97 1010.45 1010.27 1009.12 1008.84 1009.02 1009.21 1009.39 1009.05 1008.50 1007.94 1007.39 1006.64 1005.00 1003.28 1003.38 1002.82 1000.05 998.29 997.86 998.53 998.56 998.04 997.35 996.66 996.19 995.80 995.52 995.10 994.65 994.12 993.81 993.77 993.89 993.77 993.51 993.39
1015.22 1015.54 1015.16 1014.46 1013.42 1011.90 1010.38 1008.46 1007.26 1006.94 1006.93 1007.42 1007.70 1008.26 1008.34 1008.43 1008.16 1007.88 1007.32 1005.56 1003.28 1001.78 1001.32 999.87 997.94 996.67 996.42 996.79 997.02 996.76 996.43 996.27 995.92 995.89 995.45 994.86 994.52 993.82 993.58 993.41 993.31 993.23 993.42 993.22
1014.95 1014.91 1014.27 1013.15 1010.95 1008.81 1007.24 1006.16 1005.14 1004.84 1005.02 1005.81 1006.29 1007.10 1007.56 1007.65 1007.56 1006.84 1005.94 1004.03 1002.73 1001.33 1000.48 998.84 997.20 995.89 995.95 996.17 995.87 996.01 995.97 996.16 995.94 995.69 995.44 994.65 994.36 994.15 993.37 993.09 993.01 993.17 993.39 993.31
1014.86 1014.62 1013.48 1011.37 1009.18 1007.57 1006.65 1005.29 1004.04 1004.07 1003.68 1004.86 1005.80 1006.27 1006.84 1006.92 1006.84 1006.36 1005.08 1003.21 1001.13 999.52 999.20 998.96 998.02 997.53 997.17 996.40 995.78 995.72 995.70 995.66 995.41 995.58 995.36 994.78 994.56 994.49 994.19 993.84 993.55 992.83 992.40 992.92
1014.45 1013.70 1012.46 1010.84 1009.78 1008.16 1007.57 1006.58 1005.68 1005.04 1004.45 1003.69 1004.03 1005.00 1005.57 1005.67 1005.74 1005.37 1004.29 1002.81 1001.04 1000.34 999.40 998.96 998.74 998.51 997.96 997.29 996.68 996.44 996.27 996.24 996.01 995.64 995.00 994.86 995.24 995.16 994.87 994.74 994.72 994.15 993.52 993.50
1013.24 1012.16 1011.52 1011.22 1010.54 1009.55 1008.86 1008.12 1007.18 1006.44 1005.56 1004.41 1004.37 1004.86 1004.18 1003.93 1003.94 1003.66 1003.36 1002.38 1001.57 1000.72 1000.32 1000.03 1000.28 999.74 998.92 998.28 997.43 997.08 996.73 996.68 996.70 996.42 996.18 996.40 996.28 995.93 995.76 995.94 995.94 995.69 995.07 994.65
Wind_Speed
19 20 22 23 25 31 10 6 4 5 3 1 4 4 6 8 16 14 6 1 8 10 15 13 11 10 12 12 14 12 18 4 6 3 7 4 7 6 11 7 7 6 7 10
19 20 21 21 21 18 7 7 5 4 3 3 4 8 11 13 12 9 6 8 9 12 13 9 9 13 13 14 10 13 8 10 12 6 9 4 6 6 12 10 6 4 2 7
17 19 20 21 21 18 6 5 4 2 2 4 9 9 8 12 14 13 11 4 10 13 14 11 9 15 13 20 7 3 6 7 10 10 9 5 11 13 21 18 10 4 10 10
17 19 20 21 23 23 3 4 3 5 5 8 13 11 9 14 13 11 14 10 8 8 10 14 15 13 18 20 6 4 2 4 6 8 10 10 9 9 13 5 16 11 17 6
16 18 20 22 24 30 3 5 5 7 10 11 10 9 7 12 13 10 12 12 19 16 7 14 19 21 17 10 14 9 3 6 3 5 7 9 7 4 3 14 9 6 8 4
15 16 17 19 20 19 5 6 6 5 7 8 7 7 10 15 16 11 15 18 16 17 19 22 21 21 20 19 12 16 7 4 2 5 2 7 4 5 8 5 9 12 5 9
14 14 14 14 15 12 5 6 6 4 6 7 9 16 15 15 14 11 16 14 12 14 25 23 20 16 16 17 15 13 11 3 4 5 2 7 3 11 17 14 9 7 7 16
13 13 12 12 11 12 5 6 5 4 7 10 12 14 13 13 12 13 13 15 11 16 16 8 9 7 11 15 14 16 10 3 2 6 9 2 5 8 10 12 13 18 17 29
12 12 12 11 10 11 6 7 6 2 4 4 13 13 12 9 9 9 10 16 13 10 5 3 5 5 6 5 5 9 10 5 5 1 8 11 5 6 5 4 9 22 18 25
11 12 12 11 11 9 5 6 9 4 3 10 10 8 9 11 8 6 9 9 9 7 2 5 9 12 12 11 9 9 5 5 4 5 7 7 6 10 8 7 6 17 23 16
11 11 12 12 12 10 5 7 9 5 5 13 16 16 14 12 8 7 6 7 1 4 3 3 4 8 9 10 13 9 9 4 3 3 5 7 12 5 16 9 6 8 17 14
11 11 10 10 10 11 6 5 8 4 2 9 15 15 17 17 14 10 6 7 7 3 2 5 6 7 7 9 14 8 7 13 5 6 7 7 2 9 9 16 13 22 21 21
12 12 12 12 10 10 7 6 8 7 5 9 12 13 17 16 17 15 10 7 9 5 4 2 4 8 8 8 8 13 14 8 10 4 14 14 15 7 5 5 10 38 22 14
13 13 12 13 11 11 9 6 6 3 3 4 7 8 11 11 12 15 19 16 12 6 2 3 3 6 8 9 15 13 10 7 13 8 13 10 16 7 6 6 3 20 7 13
13 14 13 14 12 12 8 8 9 8 5 4 8 15 21 22 19 18 14 10 12 5 4 3 4 4 6 8 14 14 9 5 8 13 12 9 11 6 8 5 7 19 13 4
14 15 15 14 12 7 3 4 3 2 9 2 4 5 13 17 15 15 20 14 10 5 5 3 4 4 1 7 10 7 7 6 9 3 14 17 9 6 6 4 6 3 14 17
14 14 14 13 10 3 4 2 2 3 3 1 5 7 5 6 7 2 5 10 3 4 4 5 3 3 2 5 13 16 20 16 12 12 13 5 3 8 8 4 9 8 5 12
15 15 14 13 9 7 8 11 15 7 1 1 4 6 5 4 1 4 3 5 4 5 4 4 4 6 4 11 11 20 18 11 10 12 13 9 9 9 9 8 8 5 6 20
15 15 11 3 4 5 1 8 8 6 4 3 5 3 4 1 4 3 3 4 4 4 7 5 7 5 10 20 16 15 8 8 8 10 10 11 10 9 9 8 9 9 10 16
14 3 3 2 4 15 10 3 3 3 4 3 5 3 6 1 3 7 5 4 4 6 9 8 4 8 23 19 23 16 8 7 8 5 8 10 10 8 8 8 5 2 1 7
2 2 1 2 8 3 4 4 5 5 5 6 6 9 6 5 5 5 5 2 4 4 6 8 7 8 10 16 20 15 10 8 9 4 6 8 8 7 6 7 6 7 3 4
4 4 2 2 2 5 5 5 5 7 6 7 4 4 5 3 3 3 3 4 3 5 12 7 5 7 15 19 16 15 9 8 10 6 8 10 9 9 8 6 6 7 8 6
2 1 2 4 5 6 6 7 5 3 3 6 4 4 3 3 2 2 2 6 5 2 4 4 4 5 6 11 10 13 8 5 4 7 9 9 8 10 7 7 6 7 7 7
3 2 4 4 6 8 7 8 8 3 5 6 6 3 4 2 3 2 5 5 4 4 3 3 3 6 7 5 4 6 6 3 2 6 8 7 5 9 7 7 3 6 8 6
3 3 6 8 10 12 11 12 1 8 5 7 3 2 3 3 3 3 5 5 5 4 2 3 1 4 4 3 3 3 4 3 4 4 6 3 6 7 7 10 9 6 5 7
3 6 5 7 9 8 8 10 9 9 10 4 2 3 3 4 3 3 5 5 3 2 4 3 6 4 3 4 1 1 1 2 2 6 6 8 7 5 6 10 12 11 5 8
5 5 5 7 6 7 6 7 7 9 7 3 2 1 5 4 4 6 3 5 3 2 1 4 4 6 3 5 3 3 5 5 8 4 8 4 4 5 6 7 6 6 8 6
Wind_Direction
345 346 344 346 348 344 1 321 291 155 175 231 212 229 250 276 298 308 319 284 301 304 316 317 327 229 198 235 208 214 223 214 242 182 194 90 244 195 147 122 165 145 180 266
346 347 346 346 350 8 322 315 277 220 142 257 258 294 324 319 328 305 330 333 321 328 309 318 336 319 316 267 214 205 217 223 249 341 345 306 218 155 130 102 94 121 175 264
347 346 344 343 342 344 327 285 290 283 158 240 332 343 323 335 329 322 337 305 323 316 314 307 298 308 302 318 256 116 152 219 185 224 207 230 264 119 143 148 136 183 242 326
348 346 344 344 340 335 292 234 14 19 330 348 344 329 321 325 331 343 339 334 305 283 304 314 311 306 303 313 293 156 119 228 240 265 215 179 275 16 118 225 149 169 219 215
347 348 345 345 347 336 225 353 359 348 304 315 319 318 308 301 298 303 313 313 328 337 296 346 321 325 302 276 316 318 260 256 288 294 306 217 141 97 160 252 187 117 152 235
345 348 350 349 359 349 349 359 343 318 304 315 310 295 314 332 341 326 338 356 343 333 350 332 315 298 283 282 291 300 277 184 184 256 123 99 318 203 234 185 175 159 131 226
343 346 352 358 6 11 335 323 326 307 292 318 313 323 322 322 330 330 319 327 332 323 331 323 318 305 303 284 281 276 281 234 148 202 239 197 208 157 239 149 156 328 319 258
337 340 345 350 357 1 330 301 308 327 308 336 307 339 346 337 320 312 312 314 326 317 327 330 329 321 303 279 272 274 275 295 183 154 245 250 186 173 166 161 196 189 225 243
333 335 339 346 353 356 326 306 321 318 324 198 359 320 311 305 312 308 314 342 340 349 325 295 244 266 320 253 278 263 279 278 136 195 205 230 210 202 207 164 146 208 219 223
324 328 331 333 336 341 333 291 299 302 258 279 277 328 324 320 326 314 323 343 330 321 234 272 261 261 281 266 238 245 269 310 230 272 214 245 248 195 106 107 226 170 202 188
314 317 320 322 324 325 333 297 300 295 283 285 281 284 291 298 300 297 322 340 69 317 264 251 246 258 262 241 250 208 213 192 231 210 217 242 208 148 169 195 101 178 238 196
302 303 305 308 314 310 316 283 283 329 257 282 311 291 275 269 288 297 281 252 315 50 324 20 314 278 295 292 242 258 240 219 197 201 209 267 246 157 218 168 182 198 206 206
296 297 299 300 301 301 295 288 305 304 283 279 249 251 252 247 247 251 258 263 279 174 131 115 303 280 333 286 251 229 252 253 244 267 270 267 287 303 342 14 178 179 191 220
295 294 296 292 295 289 278 272 269 257 275 273 277 303 269 285 268 258 226 233 236 96 156 137 214 279 324 310 297 310 234 230 227 234 259 288 280 309 285 72 154 162 184 188
294 292 291 287 287 282 281 263 250 246 206 279 286 313 283 263 260 261 262 242 240 146 158 171 223 273 314 293 275 253 267 287 247 230 234 210 250 265 306 4 309 123 104 18
292 290 288 284 284 295 287 276 63 272 214 244 295 288 275 277 262 240 239 214 234 157 145 170 208 254 304 291 287 279 317 299 342 254 203 215 237 214 258 277 274 199 133 159
291 290 285 282 263 200 230 264 17 332 83 96 294 279 236 288 293 207 186 197 187 138 160 197 213 180 116 264 257 302 316 310 311 11 12 203 228 233 233 261 291 246 139 131
296 291 282 278 255 254 251 242 244 192 105 116 253 264 285 288 236 181 133 179 153 183 195 182 177 155 137 257 246 252 249 296 343 9 6 353 341 5 53 34 350 269 95 143
297 291 284 263 205 227 249 73 161 160 183 223 219 236 284 299 203 129 232 161 158 190 215 207 167 137 221 243 250 266 278 303 323 344 356 339 350 2 11 25 17 47 61 159
300 268 220 262 350 112 130 140 132 184 194 227 251 206 239 286 217 178 176 189 217 197 202 153 174 234 234 237 254 276 280 304 307 343 349 337 335 348 345 344 317 340 81 132
194 263 282 336 306 263 225 214 203 166 224 213 226 213 221 209 239 210 215 191 215 215 161 186 199 233 234 250 253 251 274 284 297 295 319 301 291 296 298 309 314 323 283 261
316 292 267 267 248 232 245 221 195 212 237 163 192 195 191 249 236 266 179 249 248 268 145 221 230 210 207 199 209 231 242 266 282 323 287 281 279 279 278 244 261 280 295 264
105 223 258 210 214 237 223 222 218 219 158 190 163 187 204 200 247 215 241 252 235 302 201 236 218 208 163 178 181 206 218 218 313 336 320 272 305 277 266 278 242 263 291 290
243 226 255 249 230 216 203 240 263 179 184 175 166 136 186 201 203 287 255 245 262 199 232 253 341 349 27 28 142 193 140 115 341 308 289 307 327 346 312 288 238 271 253 261
246 217 240 237 257 300 313 339 24 3 162 153 132 170 145 187 239 212 290 292 286 288 214 198 291 274 309 339 25 359 72 322 302 315 299 325 32 358 2 14 351 331 138 139
233 228 251 262 279 293 336 341 340 5 341 290 76 98 181 201 210 215 238 260 258 19 321 342 4 270 264 229 173 24 197 216 3 340 322 37 28 23 39 28 13 7 37 90
222 233 223 259 285 281 298 332 314 335 305 320 114 206 241 163 208 191 241 294 317 244 21 43 279 332 332 293 207 200 218 144 45 5 38 66 27 28 55 64 14 3 16 43